Kezdőlap
METAR-TAF:

METAR-TAF

Repülőterek :

Owatonna Degner Regional Airport

Owatonna, Minnesota, Amerikai Egyesült Államok

földrajzi szélesség: 44-07N, földrajzi hosszúság: 093-15W, magasság: 350 m

Jelenlegi meteorológiai megfigyelések

A jelentés 15 perccel ezelõtt készült, 18:33 UTC
Nyugat-északnyugati szél 16 kt széllökések: 22 kt
Hőmérséklet 10°C
Páratartalom 57%
Légköri nyomás 1018 hPa
Látótávolság: 16.1 km
Szakadozott felhőzet 4300 lábon

METAR: KOWA 181833Z AUTO 29016G22KT 10SM BKN043 10/02 A3006 RMK AO2

Idő: 13:48 (18:48 UTC)


TAF: hiányzik

Meteorológiai megfigyelések és előrejelzések több, mint 4000 repülőtéren (METAR és TAF jelentéseket).

A térképen piros és sárga pontok jelzik az elérhető meteorológiai állomásokat.

Mozgassa az egeret a pont fölött, hogy megjelenjen az állomás neve.

Azután kattintson az időjárási megfigyelések és előrejelzések megtekintéséhez.

A térkép megváltoztatása: kattintson a fekete keresztel jelölt zöld gombra ráközelítéshez, a vonallal jelölt zöld gombra távolításhoz, vagy a zöld nyilakra a szomszédos térképek eléréséhez.


METAR-TAF: